Starlink 32046

operational
NORAD ID: 60198 Int'l Des: 2024-124 Owner: SPXS Country: US Constellation: starlink
LEOCIRCULAR

关于 Starlink 32046

正在加载描述...

实时位置

正在加载3D地球...

即将过境

高度历史

Altitude vs Time

uPlot chart will show altitude changes over time

两行轨道根数

1 60198U 24124R 25258.17910369 .00001073 00000-0 48337-4 0 9995
2 60198 53.1615 57.7650 0001140 80.3073 279.8057 15.30208188 68653
Epoch: Sep 15, 2025 • Age: 13 hours

当前状态

高度 479.5 km
速度 7.63 km/s
星下点 46.18°N, 70.75°W
发射日期 Jul 3, 2024
运行时间 1.2 years
类型 internet

技术详情

分类 Payload
质量 730.00 kg
干质量 700.00 kg
总质量 730.00 kg
长度 0.30 m
直径 4.10 m
跨度 29.00 m
形状 Box + pan
制造商 SPXS
平台类型 Starlink V2M
阶段状态 In Orbit
所有者/国家 SPXS/US

大型星座

Loading constellations...